SGSAT

Last updated on Mon May 07 2018 00:15:07 GMT+0000 (Coordinated Universal Time)

1 42703U 98067LL 18126.44191986 .17722778 12425-4 13973-2 0 9990 2 42703 51.6180 185.5549 0005134 302.2194 57.7887 16.39284937 55666

Satellite not in orbit